Regional Weather Roundup
Issued by NWS Raleigh/Durham, NC

Home | Current Version | Previous Version | Text Only | Print | Product List | Glossary On
Versions: 1 2 3 4 5 6 7 8 9 10 11 12 13 14 15 16 17 18 19 20 21 22 23 24 25 26 27 28 29 30 31 32 33 34 35 36 37 38 39 40 41 42 43 44 45 46 47 48 49 50
000
ASUS42 KRAH 302010
RWRRAH
NORTH CAROLINA WEATHER ROUNDUP
NATIONAL WEATHER SERVICE RALEIGH NC
400 PM EDT TUE SEP 30 2014

NOTE: "FAIR" INDICATES FEW OR NO CLOUDS BELOW 12,000 FEET WITH NO
SIGNIFICANT WEATHER AND/OR OBSTRUCTIONS TO VISIBILITY.

NCZ001-053-055-056-065-067-302100-
WESTERN NORTH CAROLINA

CITY           SKY/WX    TMP DP  RH WIND       PRES   REMARKS
ASHEVILLE      SUNNY     79  50  36 N14       29.94F
JEFFERSON      SUNNY     71  46  40 N5        29.98F
MORGANTON      SUNNY     81  55  40 CALM      29.93S
HICKORY        MOSUNNY   80  58  46 CALM      29.89F
RUTHERFORDTON  MOSUNNY   82  58  45 W3        29.90S
MOUNT AIRY     SUNNY     82  51  34 CALM      29.90S
BOONE          SUNNY     72  49  44 W10G17    29.99S
$$

NCZ021-022-025-041-071-084-088-302100-
CENTRAL NORTH CAROLINA

CITY           SKY/WX    TMP DP  RH WIND       PRES   REMARKS
CHARLOTTE      MOSUNNY   82  55  39 NW3       29.88F
GREENSBORO     MOSUNNY   78  58  49 NE7       29.87F
WINSTON-SALEM  MOSUNNY   80  55  42 MISG      29.89S
RALEIGH-DURHAM MOSUNNY   73  62  68 CALM      29.88F
FORT BRAGG     SUNNY     79  64  60 N5        29.86S
FAYETTEVILLE   SUNNY     80  64  58 N7        29.85S
BURLINGTON     PTSUNNY   79  61  53 E6        29.87F
LAURINBURG     MOSUNNY   81  60  48 N5        29.85F
$$

NCZ011-015-027-028-043-044-047-080-103-302100-
NORTHEASTERN NORTH CAROLINA

CITY           SKY/WX    TMP DP  RH WIND       PRES   REMARKS
ROCKY MT-WILSO SUNNY     73  63  70 N5        29.87F
GREENVILLE     MOSUNNY   81  64  57 NE8       29.87F
WASHINGTON     SUNNY     78  62  57 N7        29.84S
ELIZABETH CITY SUNNY     77  63  61 NE12      29.85S
MANTEO         SUNNY     74  60  61 NE10      29.85S
CAPE HATTERAS  SUNNY     72  65  78 NE8G21    29.83S
$$

NCZ078-087-090-091-093-098-101-302100-
SOUTHEASTERN NORTH CAROLINA

CITY           SKY/WX    TMP DP  RH WIND       PRES   REMARKS
LUMBERTON      MOSUNNY   83  63  50 N8        29.84F
GOLDSBORO      MOSUNNY   79  68  69 CALM      29.83F
KINSTON        MOSUNNY   79  63  57 N9        29.85F
KENANSVILLE    MOSUNNY   79  60  51 N7        29.85S
NEW BERN       MOSUNNY   81  63  54 NE8G16    29.84F
CHERRY POINT   MOSUNNY   80  65  59 N7        29.83F
BEAUFORT       SUNNY     79  64  60 NE12      29.82F
JACKSONVILLE   MOSUNNY   79  62  56 N9        29.82S
WILMINGTON     MOSUNNY   82  64  54 NE7       29.82F
$$



USA.gov is the U.S. government's official web portal to all federal, state and local government web resources and services.